Time,TemperatureF,DewpointF,PressureIn,WindDirection,WindDirectionDegrees,WindSpeedMPH,WindSpeedGustMPH,Humidity,HourlyPrecipIn,Conditions,Clouds,dailyrainin,SolarRadiationWatts/m^2,SoftwareType,DateUTC
2013-03-13 00:00:00,44.1,30.7,30.13,NW,314,8.1,8.1,59,0.00,CLR,,0.00,0.0,WeatherDisplay:10.37,2013-03-13 04:00:00,
2013-03-13 00:05:00,44.1,30.7,30.13,NW,322,9.2,9.2,59,0.00,CLR,,0.00,0.0,WeatherDisplay:10.37,2013-03-13 04:05:00,
2013-03-13 00:10:00,43.9,30.5,30.12,NW,317,10.4,10.4,59,0.00,CLR,,0.00,0.0,WeatherDisplay:10.37,2013-03-13 04:10:00,
2013-03-13 00:15:00,43.9,30.5,30.13,NW,313,11.5,11.5,59,0.00,CLR,,0.00,0.0,WeatherDisplay:10.37,2013-03-13 04:15:00,
2013-03-13 00:20:00,43.8,30.8,30.13,NW,313,7.0,7.0,60,0.00,CLR,,0.00,0.0,WeatherDisplay:10.37,2013-03-13 04:20:00,
2013-03-13 00:25:00,43.6,30.6,30.12,NW,326,8.1,8.1,60,0.00,CLR,,0.00,0.0,WeatherDisplay:10.37,2013-03-13 04:25:00,
2013-03-13 00:30:00,43.6,30.6,30.12,NW,326,4.6,4.6,60,0.00,CLR,,0.00,0.0,WeatherDisplay:10.37,2013-03-13 04:30:00,
2013-03-13 00:35:00,43.4,30.0,30.12,NNW,332,10.0,10.0,59,0.00,CLR,,0.00,0.0,WeatherDisplay:10.37,2013-03-13 04:35:00,
2013-03-13 00:41:00,43.3,29.9,30.13,NNW,332,4.6,4.6,59,0.00,CLR,,0.00,0.0,WeatherDisplay:10.37,2013-03-13 04:41:00,
2013-03-13 00:46:00,43.3,30.3,30.12,NW,319,11.5,11.5,60,0.00,CLR,,0.00,0.0,WeatherDisplay:10.37,2013-03-13 04:46:00,
2013-03-13 00:51:00,43.2,30.2,30.13,NW,318,8.1,8.1,60,0.00,CLR,,0.00,0.0,WeatherDisplay:10.37,2013-03-13 04:51:00,
2013-03-13 00:56:00,43.1,30.6,30.13,NW,311,11.5,11.5,61,0.00,CLR,,0.00,0.0,WeatherDisplay:10.37,2013-03-13 04:56:00,
2013-03-13 01:01:00,43.0,30.5,30.12,NW,308,6.0,6.0,61,0.00,CLR,,0.00,0.0,WeatherDisplay:10.37,2013-03-13 05:01:00,
2013-03-13 01:06:00,42.9,30.4,30.12,NW,315,5.8,5.8,61,0.00,CLR,,0.00,0.0,WeatherDisplay:10.37,2013-03-13 05:06:00,
2013-03-13 01:11:00,42.8,30.3,30.12,NW,315,6.0,6.0,61,0.00,CLR,,0.00,0.0,WeatherDisplay:10.37,2013-03-13 05:11:00,
2013-03-13 01:16:00,42.6,30.5,30.12,NW,309,5.8,5.8,62,0.00,CLR,,0.00,0.0,WeatherDisplay:10.37,2013-03-13 05:16:00,
2013-03-13 01:21:00,42.5,30.4,30.12,NW,311,6.9,6.9,62,0.00,CLR,,0.00,0.0,WeatherDisplay:10.37,2013-03-13 05:21:00,
2013-03-13 01:26:00,42.5,30.8,30.13,NW,313,6.9,6.9,63,0.00,CLR,,0.00,0.0,WeatherDisplay:10.37,2013-03-13 05:26:00,
2013-03-13 01:31:00,42.4,30.7,30.12,NW,325,6.9,6.9,63,0.00,CLR,,0.00,0.0,WeatherDisplay:10.37,2013-03-13 05:31:00,
2013-03-13 01:36:00,42.4,31.1,30.13,NW,315,10.4,10.4,64,0.00,CLR,,0.00,0.0,WeatherDisplay:10.37,2013-03-13 05:36:00,
2013-03-13 01:41:00,42.3,31.0,30.13,NW,306,11.5,11.5,64,0.00,CLR,,0.00,0.0,WeatherDisplay:10.37,2013-03-13 05:41:00,
2013-03-13 01:46:00,42.6,31.3,30.13,NW,323,9.2,9.2,64,0.00,CLR,,0.00,0.0,WeatherDisplay:10.37,2013-03-13 05:46:00,
2013-03-13 01:51:00,42.7,31.0,30.13,NW,324,11.5,11.5,63,0.00,CLR,,0.00,0.0,WeatherDisplay:10.37,2013-03-13 05:51:00,
2013-03-13 01:56:00,43.1,31.4,30.12,NW,326,9.2,9.2,63,0.00,CLR,,0.00,0.0,WeatherDisplay:10.37,2013-03-13 05:56:00,
2013-03-13 02:01:00,43.0,31.3,30.12,NNW,336,9.2,9.2,63,0.00,CLR,,0.00,0.0,WeatherDisplay:10.37,2013-03-13 06:01:00,
2013-03-13 02:06:00,42.9,31.2,30.12,NNW,337,11.5,11.5,63,0.00,CLR,,0.00,0.0,WeatherDisplay:10.37,2013-03-13 06:06:00,
2013-03-13 02:11:00,43.2,31.4,30.12,NW,319,12.7,12.7,63,0.00,CLR,,0.00,0.0,WeatherDisplay:10.37,2013-03-13 06:11:00,
2013-03-13 02:16:00,43.1,31.4,30.12,NNW,333,13.0,13.0,63,0.00,CLR,,0.00,0.0,WeatherDisplay:10.37,2013-03-13 06:16:00,
2013-03-13 02:22:00,43.2,31.8,30.12,North,355,15.0,15.0,64,0.00,CLR,,0.00,0.0,WeatherDisplay:10.37,2013-03-13 06:22:00,
2013-03-13 02:27:00,43.4,31.6,30.12,NNW,344,11.5,11.5,63,0.00,CLR,,0.00,0.0,WeatherDisplay:10.37,2013-03-13 06:27:00,
2013-03-13 02:32:00,43.6,31.8,30.12,NW,323,16.1,16.1,63,0.00,CLR,,0.00,0.0,WeatherDisplay:10.37,2013-03-13 06:32:00,
2013-03-13 02:37:00,43.7,31.5,30.12,NW,319,13.8,13.8,62,0.00,CLR,,0.00,0.0,WeatherDisplay:10.37,2013-03-13 06:37:00,
2013-03-13 02:42:00,43.8,31.6,30.12,NNW,327,19.6,19.6,62,0.00,CLR,,0.00,0.0,WeatherDisplay:10.37,2013-03-13 06:42:00,
2013-03-13 02:47:00,43.9,31.7,30.12,WNW,300,10.4,10.4,62,0.00,CLR,,0.00,0.0,WeatherDisplay:10.37,2013-03-13 06:47:00,
2013-03-13 02:52:00,43.7,31.5,30.12,NW,309,11.5,11.5,62,0.00,CLR,,0.00,0.0,WeatherDisplay:10.37,2013-03-13 06:52:00,
2013-03-13 02:57:00,43.6,31.0,30.12,NNW,335,16.1,16.1,61,0.00,CLR,,0.00,0.0,WeatherDisplay:10.37,2013-03-13 06:57:00,
2013-03-13 03:02:00,43.7,31.1,30.12,NNW,333,12.7,12.7,61,0.00,CLR,,0.00,0.0,WeatherDisplay:10.37,2013-03-13 07:02:00,
2013-03-13 03:07:00,43.5,30.9,30.12,NW,315,13.8,13.8,61,0.00,CLR,,0.00,0.0,WeatherDisplay:10.37,2013-03-13 07:07:00,
2013-03-13 03:12:00,43.4,30.4,30.12,North,355,11.5,11.5,60,0.00,CLR,,0.00,0.0,WeatherDisplay:10.37,2013-03-13 07:12:00,
2013-03-13 03:17:00,43.2,30.6,30.12,NNW,333,12.7,12.7,61,0.00,CLR,,0.00,0.0,WeatherDisplay:10.37,2013-03-13 07:17:00,
2013-03-13 03:22:00,43.1,29.7,30.12,NNW,329,16.1,16.1,59,0.00,CLR,,0.00,0.0,WeatherDisplay:10.37,2013-03-13 07:22:00,
2013-03-13 03:27:00,42.9,30.0,30.12,NW,323,11.0,11.0,60,0.00,CLR,,0.00,0.0,WeatherDisplay:10.37,2013-03-13 07:27:00,
2013-03-13 03:32:00,42.7,29.8,30.13,NNW,333,10.4,10.4,60,0.00,CLR,,0.00,0.0,WeatherDisplay:10.37,2013-03-13 07:32:00,
2013-03-13 03:37:00,42.7,28.9,30.13,NW,311,11.5,11.5,58,0.00,CLR,,0.00,0.0,WeatherDisplay:10.37,2013-03-13 07:37:00,
2013-03-13 03:42:00,42.7,29.8,30.12,NW,324,6.9,6.9,60,0.00,CLR,,0.00,0.0,WeatherDisplay:10.37,2013-03-13 07:42:00,
2013-03-13 03:47:00,42.5,29.2,30.12,NW,326,10.4,10.4,59,0.00,CLR,,0.00,0.0,WeatherDisplay:10.37,2013-03-13 07:47:00,
2013-03-13 03:52:00,42.3,29.0,30.12,NNW,336,11.5,11.5,59,0.00,CLR,,0.00,0.0,WeatherDisplay:10.37,2013-03-13 07:52:00,
2013-03-13 03:57:00,42.2,28.5,30.12,NW,304,16.1,16.1,58,0.00,CLR,,0.00,0.0,WeatherDisplay:10.37,2013-03-13 07:57:00,
2013-03-13 04:02:00,42.2,28.9,30.13,NW,312,5.8,5.8,59,0.00,CLR,,0.00,0.0,WeatherDisplay:10.37,2013-03-13 08:02:00,
2013-03-13 04:08:00,42.0,28.7,30.12,NNW,333,6.9,6.9,59,0.00,CLR,,0.00,0.0,WeatherDisplay:10.37,2013-03-13 08:08:00,
2013-03-13 04:13:00,42.1,28.8,30.12,NW,311,7.0,7.0,59,0.00,CLR,,0.00,0.0,WeatherDisplay:10.37,2013-03-13 08:13:00,
2013-03-13 04:18:00,42.0,28.7,30.12,NW,318,6.0,6.0,59,0.00,CLR,,0.00,0.0,WeatherDisplay:10.37,2013-03-13 08:18:00,
2013-03-13 04:23:00,42.0,28.3,30.12,NW,318,4.6,4.6,58,0.00,CLR,,0.00,0.0,WeatherDisplay:10.37,2013-03-13 08:23:00,
2013-03-13 04:28:00,41.7,28.0,30.12,NW,318,3.5,3.5,58,0.00,CLR,,0.00,0.0,WeatherDisplay:10.37,2013-03-13 08:28:00,
2013-03-13 04:33:00,41.5,28.2,30.12,NW,318,4.6,4.6,59,0.00,CLR,,0.00,0.0,WeatherDisplay:10.37,2013-03-13 08:33:00,
2013-03-13 04:38:00,41.3,28.0,30.11,NW,318,4.6,4.6,59,0.00,CLR,,0.00,0.0,WeatherDisplay:10.37,2013-03-13 08:38:00,
2013-03-13 04:43:00,41.2,27.9,30.11,NW,325,3.5,3.5,59,0.00,CLR,,0.00,0.0,WeatherDisplay:10.37,2013-03-13 08:43:00,
2013-03-13 04:48:00,41.0,27.8,30.11,NW,325,2.3,2.3,59,0.00,CLR,,0.00,0.0,WeatherDisplay:10.37,2013-03-13 08:48:00,
2013-03-13 04:54:00,40.7,27.9,30.11,NW,325,0.0,0.0,60,0.00,CLR,,0.00,0.0,WeatherDisplay:10.37,2013-03-13 08:54:00,
2013-03-13 04:59:00,40.4,28.0,30.11,NW,325,0.0,0.0,61,0.00,CLR,,0.00,0.0,WeatherDisplay:10.37,2013-03-13 08:59:00,
2013-03-13 05:04:00,40.0,28.0,30.12,NW,325,0.0,0.0,62,0.00,CLR,,0.00,0.0,WeatherDisplay:10.37,2013-03-13 09:04:00,
2013-03-13 05:09:00,39.7,28.1,30.12,NW,324,3.5,3.5,63,0.00,CLR,,0.00,0.0,WeatherDisplay:10.37,2013-03-13 09:09:00,
2013-03-13 05:14:00,39.4,28.6,30.12,NW,306,6.9,6.9,65,0.00,CLR,,0.00,0.0,WeatherDisplay:10.37,2013-03-13 09:14:00,
2013-03-13 05:19:00,39.0,28.6,30.12,NW,304,2.3,2.3,66,0.00,CLR,,0.00,0.0,WeatherDisplay:10.37,2013-03-13 09:19:00,
2013-03-13 05:24:00,38.7,28.7,30.12,WNW,302,5.0,5.0,67,0.00,CLR,,0.00,0.0,WeatherDisplay:10.37,2013-03-13 09:24:00,
2013-03-13 05:29:00,38.4,28.8,30.12,West,280,3.5,3.5,68,0.00,CLR,,0.00,0.0,WeatherDisplay:10.37,2013-03-13 09:29:00,
2013-03-13 05:34:00,38.0,28.7,30.12,WSW,255,4.6,4.6,69,0.00,CLR,,0.00,0.0,WeatherDisplay:10.37,2013-03-13 09:34:00,
2013-03-13 05:39:00,37.7,28.4,30.12,WSW,255,4.0,4.0,69,0.00,CLR,,0.00,0.0,WeatherDisplay:10.37,2013-03-13 09:39:00,
2013-03-13 05:44:00,37.2,28.3,30.12,WSW,242,3.0,3.0,70,0.00,CLR,,0.00,0.0,WeatherDisplay:10.37,2013-03-13 09:44:00,
2013-03-13 05:49:00,36.9,28.0,30.12,WSW,242,3.5,3.5,70,0.00,CLR,,0.00,0.0,WeatherDisplay:10.37,2013-03-13 09:49:00,
2013-03-13 05:54:00,36.5,28.7,30.12,WSW,242,3.5,3.5,73,0.00,CLR,,0.00,0.0,WeatherDisplay:10.37,2013-03-13 09:54:00,
2013-03-13 05:59:00,36.1,28.3,30.13,WSW,242,4.6,4.6,73,0.00,CLR,,0.00,0.0,WeatherDisplay:10.37,2013-03-13 09:59:00,
2013-03-13 06:04:00,35.6,28.1,30.13,WSW,242,5.8,5.8,74,0.00,CLR,,0.00,0.0,WeatherDisplay:10.37,2013-03-13 10:04:00,
2013-03-13 06:09:00,35.2,28.1,30.13,WSW,242,3.5,3.5,75,0.00,CLR,,0.00,0.0,WeatherDisplay:10.37,2013-03-13 10:09:00,
2013-03-13 06:14:00,34.9,28.1,30.13,WSW,242,3.5,3.5,76,0.00,CLR,,0.00,0.0,WeatherDisplay:10.37,2013-03-13 10:14:00,
2013-03-13 06:19:00,34.7,28.2,30.13,WSW,242,0.0,0.0,77,0.00,CLR,,0.00,0.0,WeatherDisplay:10.37,2013-03-13 10:19:00,
2013-03-13 06:24:00,34.6,28.1,30.13,WSW,242,3.5,3.5,77,0.00,CLR,,0.00,0.0,WeatherDisplay:10.37,2013-03-13 10:24:00,
2013-03-13 06:29:00,34.6,28.1,30.13,WSW,242,2.3,0.0,77,0.00,CLR,,0.00,0.0,WeatherDisplay:10.37,2013-03-13 10:29:00,
2013-03-13 06:34:00,34.5,28.0,30.12,WSW,242,3.5,3.5,77,0.00,CLR,,0.00,0.0,WeatherDisplay:10.37,2013-03-13 10:34:00,
2013-03-13 06:39:00,34.4,27.9,30.13,WSW,242,3.5,3.5,77,0.00,CLR,,0.00,0.0,WeatherDisplay:10.37,2013-03-13 10:39:00,
2013-03-13 06:44:00,34.4,27.9,30.13,WSW,242,3.5,3.5,77,0.00,CLR,,0.00,0.0,WeatherDisplay:10.37,2013-03-13 10:44:00,
2013-03-13 06:49:00,34.3,27.8,30.13,WSW,242,3.5,3.5,77,0.00,CLR,,0.00,0.0,WeatherDisplay:10.37,2013-03-13 10:49:00,
2013-03-13 06:54:00,34.2,27.7,30.14,WSW,242,4.6,4.6,77,0.00,CLR,,0.00,0.0,WeatherDisplay:10.37,2013-03-13 10:54:00,
2013-03-13 06:59:00,34.4,27.9,30.13,WSW,242,4.6,4.9,77,0.00,CLR,,0.00,0.0,WeatherDisplay:10.37,2013-03-13 10:59:00,
2013-03-13 07:04:00,34.5,27.7,30.14,WSW,242,4.6,4.6,76,0.00,CLR,,0.00,0.0,WeatherDisplay:10.37,2013-03-13 11:04:00,
2013-03-13 07:09:00,34.7,27.6,30.14,WSW,242,4.0,4.0,75,0.00,CLR,,0.00,0.0,WeatherDisplay:10.37,2013-03-13 11:09:00,
2013-03-13 07:14:00,35.0,27.5,30.14,West,265,10.4,10.4,74,0.00,CLR,,0.00,0.0,WeatherDisplay:10.37,2013-03-13 11:14:00,
2013-03-13 07:19:00,35.3,27.8,30.14,West,279,3.5,3.5,74,0.00,CLR,,0.00,0.0,WeatherDisplay:10.37,2013-03-13 11:19:00,
2013-03-13 07:24:00,35.1,27.6,30.14,West,279,6.0,6.0,74,0.00,CLR,,0.00,0.0,WeatherDisplay:10.37,2013-03-13 11:24:00,
2013-03-13 07:29:00,34.8,27.7,30.15,WNW,292,9.2,9.2,75,0.00,CLR,,0.00,0.0,WeatherDisplay:10.37,2013-03-13 11:29:00,
2013-03-13 07:34:00,34.4,27.3,30.15,West,269,10.4,10.4,75,0.00,CLR,,0.00,0.0,WeatherDisplay:10.37,2013-03-13 11:34:00,
2013-03-13 07:39:00,34.4,27.6,30.15,West,264,5.8,5.8,76,0.00,CLR,,0.00,0.0,WeatherDisplay:10.37,2013-03-13 11:39:00,
2013-03-13 07:44:00,34.3,27.5,30.15,West,263,7.0,7.0,76,0.00,CLR,,0.00,0.0,WeatherDisplay:10.37,2013-03-13 11:44:00,
2013-03-13 07:49:00,34.2,27.4,30.15,West,263,6.9,6.9,76,0.00,CLR,,0.00,0.0,WeatherDisplay:10.37,2013-03-13 11:49:00,
2013-03-13 07:54:00,34.4,27.3,30.16,West,261,6.0,6.0,75,0.00,CLR,,0.00,7.0,WeatherDisplay:10.37,2013-03-13 11:54:00,
2013-03-13 07:59:00,34.5,27.4,30.16,West,261,5.8,5.8,75,0.00,CLR,,0.00,11.0,WeatherDisplay:10.37,2013-03-13 11:59:00,
2013-03-13 08:04:00,34.7,27.3,30.16,WSW,256,8.1,8.1,74,0.00,CLR,,0.00,12.0,WeatherDisplay:10.37,2013-03-13 12:04:00,
2013-03-13 08:09:00,35.1,27.6,30.16,WSW,252,8.1,8.1,74,0.00,CLR,,0.00,21.0,WeatherDisplay:10.37,2013-03-13 12:09:00,
2013-03-13 08:14:00,35.3,27.5,30.16,West,259,9.2,9.2,73,0.00,CLR,,0.00,21.0,WeatherDisplay:10.37,2013-03-13 12:14:00,
2013-03-13 08:19:00,35.3,27.5,30.16,West,259,6.9,6.9,73,0.00,CLR,,0.00,21.0,WeatherDisplay:10.37,2013-03-13 12:19:00,
2013-03-13 08:24:00,35.4,27.9,30.16,West,259,5.8,5.8,74,0.00,CLR,,0.00,21.0,WeatherDisplay:10.37,2013-03-13 12:24:00,
2013-03-13 08:29:00,35.4,27.9,30.16,West,259,5.8,5.8,74,0.00,CLR,,0.00,25.0,WeatherDisplay:10.37,2013-03-13 12:29:00,
2013-03-13 08:34:00,35.5,27.7,30.16,West,259,5.8,5.8,73,0.00,CLR,,0.00,25.0,WeatherDisplay:10.37,2013-03-13 12:34:00,
2013-03-13 08:39:00,35.9,27.7,30.17,West,259,6.0,6.0,72,0.00,CLR,,0.00,26.0,WeatherDisplay:10.37,2013-03-13 12:39:00,
2013-03-13 08:44:00,36.1,27.9,30.17,West,259,5.8,5.8,72,0.00,CLR,,0.00,28.0,WeatherDisplay:10.37,2013-03-13 12:44:00,
2013-03-13 08:49:00,36.6,28.1,30.17,West,259,3.5,3.5,71,0.00,CLR,,0.00,28.0,WeatherDisplay:10.37,2013-03-13 12:49:00,
2013-03-13 08:54:00,37.1,28.2,30.17,West,262,6.9,6.9,70,0.00,CLR,,0.00,30.0,WeatherDisplay:10.37,2013-03-13 12:54:00,
2013-03-13 08:59:00,37.2,28.7,30.17,West,263,6.9,6.9,71,0.00,CLR,,0.00,30.0,WeatherDisplay:10.37,2013-03-13 12:59:00,
2013-03-13 09:04:00,37.5,28.6,30.17,WNW,284,4.6,4.6,70,0.00,OVC,,0.00,32.0,WeatherDisplay:10.37,2013-03-13 13:04:00,
2013-03-13 09:09:00,37.8,28.9,30.17,West,281,5.8,5.8,70,0.00,OVC,,0.00,33.0,WeatherDisplay:10.37,2013-03-13 13:09:00,
2013-03-13 09:14:00,38.5,29.6,30.17,West,275,12.7,12.7,70,0.00,OVC,,0.00,53.0,WeatherDisplay:10.37,2013-03-13 13:14:00,
2013-03-13 09:19:00,39.3,30.3,30.17,WNW,298,11.5,11.5,70,0.00,OVC,,0.00,47.0,WeatherDisplay:10.37,2013-03-13 13:19:00,
2013-03-13 09:24:00,40.0,30.6,30.17,WNW,284,10.4,10.4,69,0.00,OVC,,0.00,90.0,WeatherDisplay:10.37,2013-03-13 13:24:00,
2013-03-13 09:29:00,40.7,30.6,30.18,WNW,300,13.8,13.8,67,0.00,OVC,,0.00,104.0,WeatherDisplay:10.37,2013-03-13 13:29:00,
2013-03-13 09:34:00,41.2,30.7,30.17,NW,306,11.5,11.5,66,0.00,OVC,,0.00,132.0,WeatherDisplay:10.37,2013-03-13 13:34:00,
2013-03-13 09:39:00,41.5,30.6,30.17,NW,317,13.8,13.8,65,0.00,OVC,,0.00,190.0,WeatherDisplay:10.37,2013-03-13 13:39:00,
2013-03-13 09:44:00,41.9,31.0,30.17,NW,319,6.0,6.0,65,0.00,OVC,,0.00,211.0,WeatherDisplay:10.37,2013-03-13 13:44:00,
2013-03-13 09:49:00,42.1,30.8,30.17,West,273,13.8,13.8,64,0.00,OVC,,0.00,248.0,WeatherDisplay:10.37,2013-03-13 13:49:00,
2013-03-13 09:55:00,42.3,31.0,30.17,NW,312,16.0,16.0,64,0.00,OVC,,0.00,297.0,WeatherDisplay:10.37,2013-03-13 13:55:00,
2013-03-13 10:00:00,42.5,30.8,30.18,NW,304,8.0,8.0,63,0.00,OVC,,0.00,355.0,WeatherDisplay:10.37,2013-03-13 14:00:00,
2013-03-13 10:05:00,42.8,31.1,30.18,NNW,333,17.3,17.3,63,0.00,OVC,,0.00,394.0,WeatherDisplay:10.37,2013-03-13 14:05:00,
2013-03-13 10:10:00,42.8,31.5,30.18,NW,304,17.3,17.3,64,0.00,OVC,,0.00,411.0,WeatherDisplay:10.37,2013-03-13 14:10:00,
2013-03-13 10:15:00,42.9,30.8,30.17,NW,315,16.1,16.1,62,0.00,OVC,,0.00,436.0,WeatherDisplay:10.37,2013-03-13 14:15:00,
2013-03-13 10:20:00,43.2,30.6,30.18,WNW,294,17.3,17.3,61,0.00,OVC,,0.00,450.0,WeatherDisplay:10.37,2013-03-13 14:20:00,
2013-03-13 10:25:00,43.3,31.9,30.18,West,281,18.4,18.4,64,0.00,OVC,,0.00,468.0,WeatherDisplay:10.37,2013-03-13 14:25:00,
2013-03-13 10:30:00,43.7,31.5,30.18,NW,308,16.0,16.0,62,0.00,OVC,,0.00,487.0,WeatherDisplay:10.37,2013-03-13 14:30:00,
2013-03-13 10:35:00,43.9,30.9,30.19,WNW,297,15.0,15.0,60,0.00,OVC,,0.00,506.0,WeatherDisplay:10.37,2013-03-13 14:35:00,
2013-03-13 10:40:00,43.9,30.5,30.19,West,271,17.3,17.3,59,0.00,OVC,,0.00,520.0,WeatherDisplay:10.37,2013-03-13 14:40:00,
2013-03-13 10:45:00,43.9,29.2,30.19,NW,307,26.0,26.0,56,0.00,OVC,,0.00,534.0,WeatherDisplay:10.37,2013-03-13 14:45:00,
2013-03-13 10:50:00,43.9,30.9,30.19,WNW,292,16.0,16.0,60,0.00,OVC,,0.00,557.0,WeatherDisplay:10.37,2013-03-13 14:50:00,
2013-03-13 10:55:00,44.3,30.9,30.19,WNW,303,16.1,16.1,59,0.00,OVC,,0.00,563.0,WeatherDisplay:10.37,2013-03-13 14:55:00,
2013-03-13 11:00:00,44.6,30.7,30.19,West,275,16.1,16.1,58,0.00,OVC,,0.00,578.0,WeatherDisplay:10.37,2013-03-13 15:00:00,
2013-03-13 11:05:00,44.9,31.4,30.19,NNW,327,12.0,12.0,59,0.00,OVC,,0.00,584.0,WeatherDisplay:10.37,2013-03-13 15:05:00,
2013-03-13 11:10:00,44.9,30.1,30.19,NW,314,11.5,11.5,56,0.00,OVC,,0.00,612.0,WeatherDisplay:10.37,2013-03-13 15:10:00,
2013-03-13 11:15:00,44.9,29.7,30.19,NW,316,15.0,15.0,55,0.00,OVC,,0.00,663.0,WeatherDisplay:10.37,2013-03-13 15:15:00,
2013-03-13 11:20:00,44.9,28.8,30.19,NNW,334,21.9,21.9,53,0.00,OVC,,0.00,638.0,WeatherDisplay:10.37,2013-03-13 15:20:00,
2013-03-13 11:25:00,44.9,27.8,30.19,NW,304,19.6,19.6,51,0.00,OVC,,0.00,647.0,WeatherDisplay:10.37,2013-03-13 15:25:00,
2013-03-13 11:30:00,45.1,27.6,30.19,NNW,340,23.0,23.0,50,0.00,OVC,,0.00,673.0,WeatherDisplay:10.37,2013-03-13 15:30:00,
2013-03-13 11:35:00,45.1,27.1,30.19,North,355,26.0,26.0,49,0.00,OVC,,0.00,643.0,WeatherDisplay:10.37,2013-03-13 15:35:00,
2013-03-13 11:40:00,45.0,27.0,30.20,WNW,288,24.2,24.2,49,0.00,OVC,,0.00,689.0,WeatherDisplay:10.37,2013-03-13 15:40:00,
2013-03-13 11:45:00,44.8,25.8,30.20,NNW,330,26.5,26.5,47,0.00,OVC,,0.00,694.0,WeatherDisplay:10.37,2013-03-13 15:45:00,
2013-03-13 11:50:00,44.9,25.3,30.20,NW,308,27.6,27.6,46,0.00,OVC,,0.00,705.0,WeatherDisplay:10.37,2013-03-13 15:50:00,
2013-03-13 11:55:00,45.0,25.4,30.19,NW,312,27.6,27.6,46,0.00,OVC,,0.00,715.0,WeatherDisplay:10.37,2013-03-13 15:55:00,
2013-03-13 12:00:00,45.1,26.6,30.20,WNW,286,23.0,23.0,48,0.00,OVC,,0.00,728.0,WeatherDisplay:10.37,2013-03-13 16:00:00,
2013-03-13 12:05:00,45.1,26.6,30.20,NNW,336,23.0,23.0,48,0.00,OVC,,0.00,733.0,WeatherDisplay:10.37,2013-03-13 16:05:00,
2013-03-13 12:10:00,45.1,26.1,30.20,WNW,284,33.4,33.4,47,0.00,OVC,,0.00,745.0,WeatherDisplay:10.37,2013-03-13 16:10:00,
2013-03-13 12:15:00,45.1,27.1,30.20,NW,309,21.9,21.9,49,0.00,OVC,,0.00,752.0,WeatherDisplay:10.37,2013-03-13 16:15:00,
2013-03-13 12:20:00,45.0,26.0,30.20,NW,304,20.7,20.7,47,0.00,OVC,,0.00,772.0,WeatherDisplay:10.37,2013-03-13 16:20:00,
2013-03-13 12:25:00,45.7,29.1,30.19,WSW,250,26.5,26.5,52,0.00,OVC,,0.00,773.0,WeatherDisplay:10.37,2013-03-13 16:25:00,
2013-03-13 12:30:00,45.8,28.2,30.20,WNW,285,20.7,20.7,50,0.00,OVC,,0.00,784.0,WeatherDisplay:10.37,2013-03-13 16:30:00,
2013-03-13 12:35:00,45.7,28.1,30.20,NNW,327,19.6,19.6,50,0.00,OVC,,0.00,780.0,WeatherDisplay:10.37,2013-03-13 16:35:00,
2013-03-13 12:40:00,46.0,26.9,30.21,NW,317,29.0,29.0,47,0.00,OVC,,0.00,796.0,WeatherDisplay:10.37,2013-03-13 16:40:00,
2013-03-13 12:45:00,45.6,26.5,30.20,North,360,26.5,26.5,47,0.00,OVC,,0.00,810.0,WeatherDisplay:10.37,2013-03-13 16:45:00,
2013-03-13 12:50:00,45.3,24.6,30.20,NNW,327,20.7,20.7,44,0.00,OVC,,0.00,817.0,WeatherDisplay:10.37,2013-03-13 16:50:00,
2013-03-13 12:55:00,45.6,26.5,30.20,WNW,299,29.9,29.9,47,0.00,CLR,,0.00,823.0,WeatherDisplay:10.37,2013-03-13 16:55:00,
2013-03-13 13:00:00,45.8,26.2,30.20,WNW,303,31.1,31.1,46,0.00,CLR,,0.00,831.0,WeatherDisplay:10.37,2013-03-13 17:00:00,
2013-03-13 13:05:00,45.3,24.6,30.20,NW,304,31.1,31.1,44,0.00,CLR,,0.00,830.0,WeatherDisplay:10.37,2013-03-13 17:05:00,
2013-03-13 13:10:00,45.1,27.1,30.20,WNW,290,31.1,31.1,49,0.00,CLR,,0.00,831.0,WeatherDisplay:10.37,2013-03-13 17:10:00,
2013-03-13 13:15:00,45.1,26.1,30.19,NW,323,29.9,29.9,47,0.00,CLR,,0.00,840.0,WeatherDisplay:10.37,2013-03-13 17:15:00,
2013-03-13 13:20:00,45.4,27.3,30.20,North,355,20.7,20.7,49,0.00,CLR,,0.00,837.0,WeatherDisplay:10.37,2013-03-13 17:20:00,
2013-03-13 13:25:00,45.8,27.2,30.19,NW,308,28.8,28.8,48,0.00,CLR,,0.00,842.0,WeatherDisplay:10.37,2013-03-13 17:25:00,
2013-03-13 13:30:00,46.3,27.7,30.19,NW,325,28.8,28.8,48,0.00,CLR,,0.00,870.0,WeatherDisplay:10.37,2013-03-13 17:30:00,
2013-03-13 13:35:00,46.5,29.8,30.19,WNW,287,18.4,18.4,52,0.00,CLR,,0.00,860.0,WeatherDisplay:10.37,2013-03-13 17:35:00,
2013-03-13 13:40:00,47.0,29.8,30.18,West,267,21.0,21.0,51,0.00,CLR,,0.00,847.0,WeatherDisplay:10.37,2013-03-13 17:40:00,
2013-03-13 13:45:00,46.9,28.7,30.19,NW,308,27.6,27.6,49,0.00,CLR,,0.00,886.0,WeatherDisplay:10.37,2013-03-13 17:45:00,
2013-03-13 13:50:00,47.3,29.6,30.19,West,279,31.1,31.1,50,0.00,CLR,,0.00,858.0,WeatherDisplay:10.37,2013-03-13 17:50:00,
2013-03-13 13:55:00,47.1,28.9,30.19,WNW,294,25.3,25.3,49,0.00,CLR,,0.00,846.0,WeatherDisplay:10.37,2013-03-13 17:55:00,
2013-03-13 14:00:00,47.0,27.8,30.18,WNW,290,17.0,29.0,47,0.00,CLR,,0.00,863.0,WeatherDisplay:10.37,2013-03-13 18:00:00,
2013-03-13 14:05:00,47.2,28.0,30.19,WNW,293,20.7,20.7,47,0.00,CLR,,0.00,849.0,WeatherDisplay:10.37,2013-03-13 18:05:00,
2013-03-13 14:10:00,47.2,27.5,30.19,WNW,302,15.0,28.0,46,0.00,CLR,,0.00,846.0,WeatherDisplay:10.37,2013-03-13 18:10:00,
2013-03-13 14:15:00,47.2,28.5,30.18,West,260,22.0,22.0,48,0.00,CLR,,0.00,853.0,WeatherDisplay:10.37,2013-03-13 18:15:00,
2013-03-13 14:20:00,47.2,28.0,30.18,WNW,303,26.5,26.5,47,0.00,CLR,,0.00,844.0,WeatherDisplay:10.37,2013-03-13 18:20:00,
2013-03-13 14:25:00,47.5,29.8,30.18,WSW,244,16.1,16.1,50,0.00,CLR,,0.00,849.0,WeatherDisplay:10.37,2013-03-13 18:25:00,
2013-03-13 14:30:00,47.9,29.1,30.18,NW,306,27.6,27.6,48,0.00,CLR,,0.00,846.0,WeatherDisplay:10.37,2013-03-13 18:30:00,
2013-03-13 14:35:00,47.8,29.0,30.18,WNW,289,21.9,21.9,48,0.00,CLR,,0.00,838.0,WeatherDisplay:10.37,2013-03-13 18:35:00,
2013-03-13 14:40:00,47.5,26.6,30.18,WNW,296,33.4,33.4,44,0.00,CLR,,0.00,831.0,WeatherDisplay:10.37,2013-03-13 18:40:00,
2013-03-13 14:45:00,47.2,27.5,30.17,WNW,303,35.7,35.7,46,0.00,CLR,,0.00,831.0,WeatherDisplay:10.37,2013-03-13 18:45:00,
2013-03-13 14:50:00,47.1,27.9,30.17,West,281,27.6,27.6,47,0.00,CLR,,0.00,828.0,WeatherDisplay:10.37,2013-03-13 18:50:00,
2013-03-13 14:55:00,48.1,28.3,30.17,WNW,289,25.3,25.3,46,0.00,CLR,,0.00,817.0,WeatherDisplay:10.37,2013-03-13 18:55:00,
2013-03-13 15:00:00,47.5,27.2,30.17,WNW,300,25.3,25.3,45,0.00,CLR,,0.00,809.0,WeatherDisplay:10.37,2013-03-13 19:00:00,
2013-03-13 15:05:00,47.4,26.6,30.17,WNW,303,32.2,32.2,44,0.00,CLR,,0.00,795.0,WeatherDisplay:10.37,2013-03-13 19:05:00,
2013-03-13 15:10:00,47.4,27.1,30.17,NW,306,26.5,26.5,45,0.00,CLR,,0.00,789.0,WeatherDisplay:10.37,2013-03-13 19:10:00,
2013-03-13 15:15:00,47.7,28.4,30.17,West,266,31.0,31.0,47,0.00,CLR,,0.00,784.0,WeatherDisplay:10.37,2013-03-13 19:15:00,
2013-03-13 15:20:00,47.5,28.8,30.17,NNW,333,17.3,17.3,48,0.00,CLR,,0.00,772.0,WeatherDisplay:10.37,2013-03-13 19:20:00,
2013-03-13 15:25:00,47.8,26.9,30.17,WNW,302,19.6,19.6,44,0.00,CLR,,0.00,768.0,WeatherDisplay:10.37,2013-03-13 19:25:00,
2013-03-13 15:30:00,47.9,27.0,30.17,NW,315,27.0,27.0,44,0.00,CLR,,0.00,773.0,WeatherDisplay:10.37,2013-03-13 19:30:00,
2013-03-13 15:35:00,47.6,27.8,30.17,NNW,336,23.0,23.0,46,0.00,CLR,,0.00,756.0,WeatherDisplay:10.37,2013-03-13 19:35:00,
2013-03-13 15:40:00,47.5,28.3,30.17,West,279,19.6,19.6,47,0.00,CLR,,0.00,742.0,WeatherDisplay:10.37,2013-03-13 19:40:00,
2013-03-13 15:45:00,47.6,26.2,30.17,North,355,23.0,23.0,43,0.00,CLR,,0.00,733.0,WeatherDisplay:10.37,2013-03-13 19:45:00,
2013-03-13 15:50:00,47.6,27.8,30.17,WNW,285,18.4,18.4,46,0.00,CLR,,0.00,722.0,WeatherDisplay:10.37,2013-03-13 19:50:00,
2013-03-13 15:55:00,47.9,28.1,30.17,NNW,333,24.2,24.2,46,0.00,CLR,,0.00,714.0,WeatherDisplay:10.37,2013-03-13 19:55:00,
2013-03-13 16:00:00,47.7,27.4,30.17,WNW,301,21.9,21.9,45,0.00,CLR,,0.00,701.0,WeatherDisplay:10.37,2013-03-13 20:00:00,
2013-03-13 16:05:00,47.8,28.0,30.16,WSW,253,20.7,20.7,46,0.00,CLR,,0.00,694.0,WeatherDisplay:10.37,2013-03-13 20:05:00,
2013-03-13 16:11:00,48.7,27.7,30.17,WNW,293,28.8,28.8,44,0.00,CLR,,0.00,679.0,WeatherDisplay:10.37,2013-03-13 20:11:00,
2013-03-13 16:16:00,47.9,28.6,30.17,NW,318,20.7,20.7,47,0.00,CLR,,0.00,668.0,WeatherDisplay:10.37,2013-03-13 20:16:00,
2013-03-13 16:21:00,47.8,28.5,30.17,West,276,19.6,19.6,47,0.00,CLR,,0.00,656.0,WeatherDisplay:10.37,2013-03-13 20:21:00,
2013-03-13 16:26:00,48.2,27.3,30.17,NW,304,21.9,21.9,44,0.00,CLR,,0.00,638.0,WeatherDisplay:10.37,2013-03-13 20:26:00,
2013-03-13 16:31:00,48.2,27.3,30.17,WNW,295,24.2,24.2,44,0.00,CLR,,0.00,619.0,WeatherDisplay:10.37,2013-03-13 20:31:00,
2013-03-13 16:36:00,48.0,27.1,30.17,NW,317,28.0,28.0,44,0.00,CLR,,0.00,612.0,WeatherDisplay:10.37,2013-03-13 20:36:00,
2013-03-13 16:41:00,47.3,25.3,30.17,NNW,333,23.0,23.0,42,0.00,CLR,,0.00,598.0,WeatherDisplay:10.37,2013-03-13 20:41:00,
2013-03-13 16:46:00,47.1,25.2,30.17,WNW,301,19.6,19.6,42,0.00,FEW,,0.00,582.0,WeatherDisplay:10.37,2013-03-13 20:46:00,
2013-03-13 16:51:00,47.7,26.3,30.17,NW,306,17.0,17.0,43,0.00,FEW,,0.00,573.0,WeatherDisplay:10.37,2013-03-13 20:51:00,
2013-03-13 16:56:00,47.7,25.7,30.17,West,266,26.5,26.5,42,0.00,FEW,,0.00,557.0,WeatherDisplay:10.37,2013-03-13 20:56:00,
2013-03-13 17:01:00,47.5,25.5,30.17,WNW,289,28.0,28.0,42,0.00,SCT,,0.00,538.0,WeatherDisplay:10.37,2013-03-13 21:01:00,
2013-03-13 17:06:00,47.3,26.5,30.17,NW,324,25.3,25.3,44,0.00,SCT,,0.00,526.0,WeatherDisplay:10.37,2013-03-13 21:06:00,
2013-03-13 17:11:00,46.9,26.1,30.17,NW,304,20.7,20.7,44,0.00,SCT,,0.00,508.0,WeatherDisplay:10.37,2013-03-13 21:11:00,
2013-03-13 17:16:00,47.0,25.1,30.17,NW,306,31.1,31.1,42,0.00,SCT,,0.00,485.0,WeatherDisplay:10.37,2013-03-13 21:16:00,
2013-03-13 17:21:00,47.0,27.3,30.17,West,259,28.8,28.8,46,0.00,SCT,,0.00,471.0,WeatherDisplay:10.37,2013-03-13 21:21:00,
2013-03-13 17:26:00,46.7,27.0,30.17,NW,305,28.8,28.8,46,0.00,SCT,,0.00,448.0,WeatherDisplay:10.37,2013-03-13 21:26:00,
2013-03-13 17:31:00,47.0,27.8,30.18,WNW,285,24.2,24.2,47,0.00,SCT,,0.00,438.0,WeatherDisplay:10.37,2013-03-13 21:31:00,
2013-03-13 17:37:00,46.8,26.6,30.18,NW,304,25.0,25.0,45,0.00,SCT,,0.00,432.0,WeatherDisplay:10.37,2013-03-13 21:37:00,
2013-03-13 17:42:00,46.6,25.8,30.19,NNW,338,24.0,24.0,44,0.00,BKN,,0.00,399.0,WeatherDisplay:10.37,2013-03-13 21:42:00,
2013-03-13 17:47:00,45.9,26.3,30.20,NW,307,20.7,20.7,46,0.00,BKN,,0.00,394.0,WeatherDisplay:10.37,2013-03-13 21:47:00,
2013-03-13 17:52:00,45.6,25.5,30.19,NW,304,19.6,19.6,45,0.00,BKN,,0.00,353.0,WeatherDisplay:10.37,2013-03-13 21:52:00,
2013-03-13 17:57:00,45.0,24.9,30.20,NW,305,25.3,25.3,45,0.00,BKN,,0.00,369.0,WeatherDisplay:10.37,2013-03-13 21:57:00,
2013-03-13 18:02:00,44.7,24.6,30.20,NW,315,24.2,24.2,45,0.00,BKN,,0.00,357.0,WeatherDisplay:10.37,2013-03-13 22:02:00,
2013-03-13 18:07:00,44.9,25.3,30.21,NW,305,25.3,25.3,46,0.00,BKN,,0.00,336.0,WeatherDisplay:10.37,2013-03-13 22:07:00,
2013-03-13 18:12:00,44.8,25.8,30.21,NW,321,12.7,12.7,47,0.00,BKN,,0.00,320.0,WeatherDisplay:10.37,2013-03-13 22:12:00,
2013-03-13 18:17:00,45.2,26.1,30.21,NNW,342,18.4,18.4,47,0.00,BKN,,0.00,313.0,WeatherDisplay:10.37,2013-03-13 22:17:00,
2013-03-13 18:22:00,45.3,24.6,30.21,WNW,300,13.8,13.8,44,0.00,BKN,,0.00,306.0,WeatherDisplay:10.37,2013-03-13 22:22:00,
2013-03-13 18:27:00,45.0,25.4,30.22,WNW,298,16.1,16.1,46,0.00,BKN,,0.00,260.0,WeatherDisplay:10.37,2013-03-13 22:27:00,
2013-03-13 18:32:00,44.6,24.5,30.22,NNW,335,21.9,21.9,45,0.00,BKN,,0.00,260.0,WeatherDisplay:10.37,2013-03-13 22:32:00,
2013-03-13 18:37:00,44.1,24.1,30.22,North,355,10.4,10.4,45,0.00,BKN,,0.00,246.0,WeatherDisplay:10.37,2013-03-13 22:37:00,
2013-03-13 18:42:00,44.1,24.1,30.23,NNW,340,19.6,19.6,45,0.00,BKN,,0.00,229.0,WeatherDisplay:10.37,2013-03-13 22:42:00,
2013-03-13 18:47:00,43.8,23.8,30.23,NNW,334,20.7,20.7,45,0.00,BKN,,0.00,221.0,WeatherDisplay:10.37,2013-03-13 22:47:00,
2013-03-13 18:52:00,43.8,25.4,30.23,West,281,6.9,6.9,48,0.00,BKN,,0.00,192.0,WeatherDisplay:10.37,2013-03-13 22:52:00,
2013-03-13 18:57:00,43.9,24.9,30.23,WNW,300,17.3,17.3,47,0.00,BKN,,0.00,165.0,WeatherDisplay:10.37,2013-03-13 22:57:00,
2013-03-13 19:02:00,43.6,23.6,30.24,NW,317,11.5,11.5,45,0.00,BKN,,0.00,130.0,WeatherDisplay:10.37,2013-03-13 23:02:00,
2013-03-13 19:07:00,43.3,24.9,30.24,NW,323,12.0,12.0,48,0.00,BKN,,0.00,98.0,WeatherDisplay:10.37,2013-03-13 23:07:00,
2013-03-13 19:12:00,42.8,23.9,30.24,WNW,287,19.6,19.6,47,0.00,BKN,,0.00,79.0,WeatherDisplay:10.37,2013-03-13 23:12:00,
2013-03-13 19:17:00,42.4,24.1,30.25,NNW,332,18.0,18.0,48,0.00,BKN,,0.00,58.0,WeatherDisplay:10.37,2013-03-13 23:17:00,
2013-03-13 19:22:00,42.1,23.8,30.24,NW,315,15.0,15.0,48,0.00,CLR,,0.00,42.0,WeatherDisplay:10.37,2013-03-13 23:22:00,
2013-03-13 19:27:00,41.8,24.0,30.25,West,275,10.0,10.0,49,0.00,CLR,,0.00,28.0,WeatherDisplay:10.37,2013-03-13 23:27:00,
2013-03-13 19:33:00,41.5,23.2,30.25,NNW,338,20.7,20.7,48,0.00,CLR,,0.00,14.0,WeatherDisplay:10.37,2013-03-13 23:33:00,
2013-03-13 19:38:00,41.2,22.0,30.25,NW,317,16.1,16.1,46,0.00,CLR,,0.00,9.0,WeatherDisplay:10.37,2013-03-13 23:38:00,
2013-03-13 19:43:00,40.9,22.7,30.25,WNW,289,15.0,15.0,48,0.00,CLR,,0.00,5.0,WeatherDisplay:10.37,2013-03-13 23:43:00,
2013-03-13 19:48:00,40.6,22.9,30.25,WNW,286,20.7,20.7,49,0.00,CLR,,0.00,0.0,WeatherDisplay:10.37,2013-03-13 23:48:00,
2013-03-13 19:53:00,40.4,22.7,30.25,WNW,302,15.0,15.0,49,0.00,CLR,,0.00,0.0,WeatherDisplay:10.37,2013-03-13 23:53:00,
2013-03-13 19:58:00,40.3,22.6,30.25,NW,309,18.4,18.4,49,0.00,CLR,,0.00,0.0,WeatherDisplay:10.37,2013-03-13 23:58:00,
2013-03-13 20:03:00,40.2,22.5,30.25,NNW,332,17.3,17.3,49,0.00,CLR,,0.00,0.0,WeatherDisplay:10.37,2013-03-14 00:03:00,
2013-03-13 20:08:00,40.1,22.4,30.25,NNW,336,21.9,21.9,49,0.00,CLR,,0.00,0.0,WeatherDisplay:10.37,2013-03-14 00:08:00,
2013-03-13 20:14:00,39.9,22.7,30.25,NW,326,16.1,16.1,50,0.00,CLR,,0.00,0.0,WeatherDisplay:10.37,2013-03-14 00:14:00,
2013-03-13 20:19:00,39.7,22.6,30.25,NW,325,18.4,18.4,50,0.00,CLR,,0.00,0.0,WeatherDisplay:10.37,2013-03-14 00:19:00,
2013-03-13 20:24:00,39.6,22.5,30.25,NW,317,11.5,11.5,50,0.00,CLR,,0.00,0.0,WeatherDisplay:10.37,2013-03-14 00:24:00,
2013-03-13 20:29:00,39.4,22.8,30.25,NW,319,18.4,18.4,51,0.00,CLR,,0.00,0.0,WeatherDisplay:10.37,2013-03-14 00:29:00,
2013-03-13 20:34:00,39.4,22.3,30.25,NNW,341,12.7,12.7,50,0.00,CLR,,0.00,0.0,WeatherDisplay:10.37,2013-03-14 00:34:00,
2013-03-13 20:39:00,39.3,22.7,30.25,NW,321,6.9,6.9,51,0.00,CLR,,0.00,0.0,WeatherDisplay:10.37,2013-03-14 00:39:00,
2013-03-13 20:44:00,39.0,22.8,30.25,NW,320,10.4,10.4,52,0.00,CLR,,0.00,0.0,WeatherDisplay:10.37,2013-03-14 00:44:00,
2013-03-13 20:49:00,38.8,22.7,30.25,NW,323,11.5,11.5,52,0.00,CLR,,0.00,0.0,WeatherDisplay:10.37,2013-03-14 00:49:00,
2013-03-13 20:54:00,38.6,22.5,30.25,NW,323,3.5,3.5,52,0.00,CLR,,0.00,0.0,WeatherDisplay:10.37,2013-03-14 00:54:00,
2013-03-13 20:59:00,38.4,22.7,30.26,NW,323,5.0,5.0,53,0.00,CLR,,0.00,0.0,WeatherDisplay:10.37,2013-03-14 00:59:00,
2013-03-13 21:04:00,38.3,22.6,30.26,NW,319,13.0,13.0,53,0.00,CLR,,0.00,0.0,WeatherDisplay:10.37,2013-03-14 01:04:00,
2013-03-13 21:09:00,38.2,22.6,30.25,NNW,327,11.5,11.5,53,0.00,CLR,,0.00,0.0,WeatherDisplay:10.37,2013-03-14 01:09:00,
2013-03-13 21:14:00,38.2,22.6,30.25,NNW,342,16.1,16.1,53,0.00,CLR,,0.00,0.0,WeatherDisplay:10.37,2013-03-14 01:14:00,
2013-03-13 21:19:00,38.2,23.0,30.25,NW,321,8.1,8.1,54,0.00,CLR,,0.00,0.0,WeatherDisplay:10.37,2013-03-14 01:19:00,
2013-03-13 21:24:00,38.0,22.8,30.26,North,360,11.5,11.5,54,0.00,CLR,,0.00,0.0,WeatherDisplay:10.37,2013-03-14 01:24:00,
2013-03-13 21:29:00,37.9,22.7,30.26,North,355,5.8,5.8,54,0.00,CLR,,0.00,0.0,WeatherDisplay:10.37,2013-03-14 01:29:00,
2013-03-13 21:34:00,37.7,23.0,30.26,North,9,13.8,13.8,55,0.00,CLR,,0.00,0.0,WeatherDisplay:10.37,2013-03-14 01:34:00,
2013-03-13 21:39:00,37.5,22.8,30.26,NNW,335,4.6,4.6,55,0.00,CLR,,0.00,0.0,WeatherDisplay:10.37,2013-03-14 01:39:00,
2013-03-13 21:44:00,37.3,23.0,30.26,NNW,335,15.0,15.0,56,0.00,CLR,,0.00,0.0,WeatherDisplay:10.37,2013-03-14 01:44:00,
2013-03-13 21:49:00,37.1,23.3,30.26,North,9,10.4,10.4,57,0.00,CLR,,0.00,0.0,WeatherDisplay:10.37,2013-03-14 01:49:00,
2013-03-13 21:54:00,36.9,22.7,30.26,North,355,11.5,11.5,56,0.00,CLR,,0.00,0.0,WeatherDisplay:10.37,2013-03-14 01:54:00,
2013-03-13 21:59:00,36.8,23.0,30.27,NNE,19,10.4,10.4,57,0.00,CLR,,0.00,0.0,WeatherDisplay:10.37,2013-03-14 01:59:00,
2013-03-13 22:04:00,36.6,22.8,30.27,NNE,16,5.8,5.8,57,0.00,CLR,,0.00,0.0,WeatherDisplay:10.37,2013-03-14 02:04:00,
2013-03-13 22:09:00,36.3,22.9,30.27,North,5,5.8,5.8,58,0.00,CLR,,0.00,0.0,WeatherDisplay:10.37,2013-03-14 02:09:00,
2013-03-13 22:14:00,36.1,22.7,30.27,NNE,15,4.6,4.6,58,0.00,CLR,,0.00,0.0,WeatherDisplay:10.37,2013-03-14 02:14:00,
2013-03-13 22:19:00,36.0,22.6,30.27,North,355,16.1,16.1,58,0.00,CLR,,0.00,0.0,WeatherDisplay:10.37,2013-03-14 02:19:00,
2013-03-13 22:24:00,35.9,23.0,30.27,NW,324,4.6,4.6,59,0.00,CLR,,0.00,0.0,WeatherDisplay:10.37,2013-03-14 02:24:00,
2013-03-13 22:29:00,35.7,22.8,30.27,NW,322,5.0,5.0,59,0.00,CLR,,0.00,0.0,WeatherDisplay:10.37,2013-03-14 02:29:00,
2013-03-13 22:34:00,35.5,22.6,30.27,North,355,14.0,14.0,59,0.00,CLR,,0.00,0.0,WeatherDisplay:10.37,2013-03-14 02:34:00,
2013-03-13 22:39:00,35.3,22.0,30.28,NW,324,14.0,14.5,58,0.00,CLR,,0.00,0.0,WeatherDisplay:10.37,2013-03-14 02:39:00,
2013-03-13 22:44:00,35.3,22.8,30.27,NNW,333,13.0,13.0,60,0.00,CLR,,0.00,0.0,WeatherDisplay:10.37,2013-03-14 02:44:00,
2013-03-13 22:49:00,35.2,22.3,30.27,North,355,12.7,12.7,59,0.00,CLR,,0.00,0.0,WeatherDisplay:10.37,2013-03-14 02:49:00,
2013-03-13 22:54:00,35.1,22.2,30.28,North,355,12.0,12.0,59,0.00,CLR,,0.00,0.0,WeatherDisplay:10.37,2013-03-14 02:54:00,
2013-03-13 22:59:00,35.0,22.1,30.28,NW,323,10.4,10.4,59,0.00,CLR,,0.00,0.0,WeatherDisplay:10.37,2013-03-14 02:59:00,
2013-03-13 23:04:00,34.9,22.0,30.28,North,355,9.2,9.2,59,0.00,CLR,,0.00,0.0,WeatherDisplay:10.37,2013-03-14 03:04:00,
2013-03-13 23:09:00,34.8,21.9,30.28,North,355,5.8,5.8,59,0.00,CLR,,0.00,0.0,WeatherDisplay:10.37,2013-03-14 03:09:00,
2013-03-13 23:14:00,34.6,22.1,30.29,NW,315,4.6,4.6,60,0.00,CLR,,0.00,0.0,WeatherDisplay:10.37,2013-03-14 03:14:00,
2013-03-13 23:19:00,34.3,21.8,30.29,ENE,60,4.6,4.6,60,0.00,CLR,,0.00,0.0,WeatherDisplay:10.37,2013-03-14 03:19:00,
2013-03-13 23:24:00,34.2,21.7,30.29,North,360,5.8,5.8,60,0.00,CLR,,0.00,0.0,WeatherDisplay:10.37,2013-03-14 03:24:00,
2013-03-13 23:29:00,34.1,21.7,30.29,NNE,13,4.0,4.0,60,0.00,CLR,,0.00,0.0,WeatherDisplay:10.37,2013-03-14 03:29:00,
2013-03-13 23:34:00,33.9,21.1,30.30,NE,34,17.3,17.3,59,0.00,CLR,,0.00,0.0,WeatherDisplay:10.37,2013-03-14 03:34:00,
2013-03-13 23:39:00,33.7,21.7,30.30,NE,38,3.5,3.5,61,0.00,CLR,,0.00,0.0,WeatherDisplay:10.37,2013-03-14 03:39:00,
2013-03-13 23:44:00,33.4,21.0,30.30,ENE,63,12.7,12.7,60,0.00,CLR,,0.00,0.0,WeatherDisplay:10.37,2013-03-14 03:44:00,
2013-03-13 23:49:00,33.2,20.8,30.30,WNW,288,9.2,9.2,60,0.00,CLR,,0.00,0.0,WeatherDisplay:10.37,2013-03-14 03:49:00,
2013-03-13 23:54:00,33.0,21.0,30.30,NE,49,4.6,4.6,61,0.00,CLR,,0.00,0.0,WeatherDisplay:10.37,2013-03-14 03:54:00,
2013-03-13 23:59:00,32.9,20.9,30.30,ENE,78,10.4,10.4,61,0.00,CLR,,0.00,0.0,WeatherDisplay:10.37,2013-03-14 03:59:00,